Home > Weather > Schwyz > Past weeks

Flag for Switzerland Past Weather in Schwyz, Schwyz, Switzerland — Yesterday and Last 2 Weeks

Now
52 °F

Cool.


Feels Like: 51 °F
Forecast: 55 / 78 °F
Wind: 5 mph from North

Location: Altdorf

Current Time: May 25, 2016 at 11:17:30 AM

Latest Report: May 25, 2016 at 9:00 AM


Visibility: N/A

Pressure: 29.96 "Hg (28.16 "Hg at 515m altitude)

Humidity: 80%

Dew Point: 46 °F

Location of SchwyzLocation

Past Weather in Schwyz — Graph

°F

Schwyz Temperature Yesterday

Maximum temperature yesterday: 62 °F (at 5:00 PM)
Minimum temperature yesterday: 46 °F (at 3:00 AM)
Average temperature yesterday: 52 °F

High & Low Weather Summary for the Past Weeks

 TemperatureHumidityPressure
High78 °F (May 22, 4:00 PM)96% (May 13, 11:00 PM)30.24 "Hg (May 13, 11:00 PM)
Low42 °F (May 20, 7:00 AM)27% (May 10, 3:00 PM)29.47 "Hg (May 11, 4:00 PM)
Average55 °F71%29.91 "Hg
* Reported May 10 9:00 AM — May 25 9:00 AM, Schwyz, Weather by CustomWeather, © 2016

Note: Actual official high and low records may vary slightly from our data, if they occured in-between our weather recording intervals... More about our weather records

Advertising

Schwyz Weather History for the Previous 24 Hours

Scroll right to see more
 ConditionsComfort  
Time TempWeatherWind HumidityBarometerVisibility
9:00 AM
Wed, May 25
52 °FCool.5 mph80%29.96 "HgN/A
8:00 AM47 °FSunny.1 mph92%29.98 "Hg16 mi
7:00 AM46 °FCool.1 mph90%29.98 "HgN/A
6:00 AM47 °FCool.1 mph88%29.97 "HgN/A
5:00 AM45 °FPassing clouds.2 mph92%29.96 "Hg12 mi
4:40 AM48 °FPassing clouds.2 mph87%29.96 "Hg12 mi
4:00 AM49 °FCool.1 mph86%29.95 "HgN/A
3:00 AM51 °FCool.3 mph79%29.94 "HgN/A
2:00 AM53 °FCool.3 mph81%29.95 "HgN/A
1:00 AM53 °FCool.No wind81%29.96 "HgN/A
12:00 AM54 °FCool.No wind83%29.96 "HgN/A
11:00 PM
Tue, May 24
54 °FOvercast.3 mph78%29.95 "Hg12 mi
10:00 PM55 °FCool.1 mph80%29.96 "HgN/A
9:00 PM56 °FCool.3 mph68%29.94 "HgN/A
8:00 PM56 °FPartly sunny.5 mph70%29.93 "Hg12 mi
7:00 PM57 °FCool.6 mph61%29.93 "HgN/A
6:00 PM59 °FCool.9 mph61%29.93 "HgN/A
5:00 PM62 °FPartly sunny.12 mph63%29.93 "Hg16 mi
4:00 PM61 °FRefreshingly cool.12 mph60%29.94 "HgN/A
3:00 PM60 °FRefreshingly cool.10 mph58%29.96 "HgN/A
2:00 PM57 °FPartly sunny.7 mph65%29.98 "Hg16 mi
1:00 PM56 °FCool.5 mph72%29.99 "HgN/A
12:00 PM56 °FCool.5 mph79%30.01 "HgN/A
11:00 AM50 °FFog.2 mph87%30.04 "Hg6 mi
Weather by CustomWeather, © 2016

See weather overviewHow to use our weather pages